SCP
0 0 0 0 0 0 0 0 0 0 0 0 0 0 0 0 0 0 0 0 0 0 0 0 0 0 1 1 1 0 0 0 1 1 1 1 1 1 0 0 0 0 0 0
0 0 0 0 0 0 0 0 0 0 0 0 0 0 0 0 0 0 0 0 0 0 0 0 0 0 0 0 0 0 0 0 0 0 1 0 0 0 0 0 0 0 0 0
0 0 0 0 0 0 0 0 0 0 0 0 0 0 0 0 0 0 0 0 0 0 0 0 0 0 0 0 0 0 0 0 0 0 0 0 0 0 0 0 0 0 0 0
0 0 0 0 0 0 0 0 0 0 0 0 0 0 0 0 0 0 0 0 0 0 0 0 0 0 0 0 0 0 0 0 0 0 0 0 0 0 0 0 0 0 0 0
0 0 0 0 0 0 0 0 0 0 0 0 0 0 0 0 0 0 0 0 0 0 0 0 0 0 0 0 0 0 0 0 0 0 0 0 0 0 0 0 0 0 0 0
0 0 0 0 0 0 0 0 0 0 0 0 0 0 0 0 0 0 0 0 0 0 0 0 0 0 0 0 0 0 0 0 0 0 0 0 0 0 0 0 0 0 0 0
0 0 0 0 0 0 0 0 0 0 0 0 0 0 0 0 0 0 0 0 0 0 0 0 0 0 0 0 0 0 0 0 0 0 0 0 0 0 0 0 0 0 0 0
0 0 0 0 0 0 0 0 0 0 0 0 0 0 0 0 0 0 0 0 0 0 0 0 0 0 0 0 0 0 0 0 0 0 0 0 0 0 0 0 0 0 0 0
0 0 0 0 0 0 0 0 0 0 0 0 0 0 0 0 0 0 0 0 0 0 0 0 0 0 0 0 0 0 0 0 0 0 0 0 0 0 0 0 0 0 0 0
0 0 0 0 0 0 0 0 0 0 0 0 0 0 0 0 0 0 0 0 0 0 0 0 0 0 0 0 0 0 0 0 0 0 0 0 0 0 0 0 0 0 0 0
0 0 0 0 0 0 0 0 0 0 0 0 0 0 0 0 0 0 0 0 0 0 0 0 0 0 0 0 0 0 0 0 0 0 0 0 0 0 0 0 0 0 0 0
0 0 0 0 0 0 0 0 0 0 0 0 0 0 0 0 0 0 0 0 0 0 0 0 0 0 0 0 0 0 0 0 0 0 0 0 0 0 0 0 0 0 0 0
0 0 0 0 0 0 0 0 0 0 0 0 0 0 0 0 0 0 0 0 0 0 0 0 0 0 0 0 0 0 0 0 0 0 0 0 0 0 0 0 0 0 0 0
0 0 0 0 0 0 0 0 0 0 0 0 0 0 0 0 0 0 0 0 0 0 0 0 0 0 0 0 0 0 0 0 0 0 0 0 0 0 0 0 0 0 0 0
0 0 0 0 0 0 0 0 0 0 0 0 0 0 0 0 0 0 0 0 0 0 0 0 0 0 0 0 0 0 0 0 0 0 0 0 0 0 0 0 0 0 0 0
0 0 0 0 0 0 0 0 0 0 0 0 0 0 0 0 0 0 0 0 0 0 0 0 0 0 0 0 0 0 0 0 0 0 0 0 0 0 0 0 0 0 0 0
0 0 0 0 0 0 0 0 0 0 0 0 0 0 0 0 0 0 0 0 0 0 0 0 0 0 0 0 0 0 0 0 0 0 0 0 0 0 0 0 0 0 0 0
0 0 0 0 0 0 0 0 0 0 0 0 0 0 0 0 0 0 0 0 0 0 0 0 0 0 0 0 0 0 0 0 0 0 0 0 0 0 0 0 0 0 0 0
0 0 0 0 0 0 0 0 0 0 0 0 0 0 0 0 0 0 0 0 0 0 0 0 0 0 0 0 0 0 0 0 0 0 0 0 0 0 0 0 0 0 0 0
0 0 0 0 0 0 0 0 0 0 0 0 0 0 0 0 0 0 0 0 0 0 0 0 0 0 0 0 0 0 0 0 0 0 0 0 0 0 0 0 0 0 0 0
0 0 0 0 0 0 0 0 0 0 0 0 0 0 0 0 0 0 0 0 0 0 0 0 0 0 0 0 0 0 0 0 0 0 0 0 0 0 0 0 0 0 0 0
0 0 0 0 0 0 0 0 0 0 0 0 0 0 0 0 0 0 0 0 0 0 0 0 0 0 0 0 0 0 0 0 0 0 0 0 0 0 0 0 0 0 0 0
0 0 0 0 0 0 0 0 0 0 0 0 0 0 0 0 0 0 0 0 0 0 0 0 0 0 0 0 0 -0 0 0 0 0 0 0 0 0 0 0 0 0 0 0
0 0 0 0 0 0 0 0 0 0 0 0 0 0 0 0 0 0 0 0 0 0 0 0 0 0 0 0 0 0 0 0 0 0 0 0 0 0 0 -0 -0 -0 -0 -0
0 0 0 0 0 0 0 0 0 0 0 0 0 0 0 0 0 0 0 0 0 0 0 0 0 0 0 0 0 0 0 0 0 0 0 0 0 0 -0 0 -0 0 -0 -0
0 0 0 0 0 0 0 0 0 0 0 0 0 0 0 0 0 0 0 0 0 0 0 0 0 0 0 0 0 0 0 0 0 0 0 -0 -0 -0 -0 -0 -0 0 -0 -0
Wind_Speed
3 4 2 5 6 4 2 2 4 5 2 3 5 5 4 5 7 7 6 6 6 6 6 8 8 8 7 7 6 5 4 2 1 2 2 2 2 1 1 1 1 1 2 2
5 2 6 4 4 3 3 3 4 4 2 4 6 5 4 5 5 5 5 6 6 6 7 9 9 9 8 7 7 5 4 2 1 0 2 2 3 2 1 1 1 1 1 2
4 5 2 3 3 4 4 5 4 3 3 4 5 2 1 3 5 6 6 6 6 6 7 7 8 9 8 8 8 6 6 5 3 1 1 3 3 2 1 1 1 2 2 0
4 5 2 2 4 5 4 6 5 3 2 0 2 2 2 2 3 4 4 5 6 6 6 6 7 8 8 7 7 7 7 6 5 3 2 2 2 2 2 1 1 3 4 3
4 3 2 3 5 5 5 1 3 2 4 2 2 3 4 2 4 4 5 5 5 5 5 6 7 7 8 8 7 7 7 7 7 5 4 3 3 3 3 3 4 4 4 5
5 3 4 4 2 3 3 5 5 5 5 1 2 3 5 4 5 6 6 6 6 5 5 6 6 7 8 8 8 7 8 8 8 7 6 5 4 4 4 5 4 4 3 5
3 4 2 1 0 2 4 6 4 5 4 4 1 2 6 2 2 6 8 8 6 5 4 5 6 7 8 9 9 8 8 9 9 8 7 7 6 5 5 5 5 5 4 5
0 4 3 1 2 3 2 7 7 4 4 4 2 4 4 1 3 6 8 9 7 6 5 5 6 6 7 8 8 9 9 8 8 8 8 7 7 5 5 6 6 6 5 5
3 4 3 1 1 5 4 2 5 6 2 1 4 4 2 4 6 8 9 9 7 6 5 5 5 6 7 8 8 9 8 8 8 8 8 8 8 8 8 7 7 6 6 6
4 2 3 2 4 4 4 7 5 5 4 3 4 4 5 8 9 9 10 9 7 6 5 5 4 5 6 6 7 8 8 8 8 8 8 8 9 9 8 8 9 8 7 7
2 2 3 3 2 0 3 3 5 4 4 5 3 7 5 8 10 12 11 10 9 7 5 4 4 5 5 6 7 8 8 8 8 8 8 9 9 9 9 9 9 8 8 8
1 4 1 3 2 0 2 4 6 4 3 4 3 8 2 3 7 10 11 10 9 8 6 5 5 5 5 6 7 7 8 8 8 8 9 9 9 9 9 9 9 8 9 9
2 5 2 5 5 3 1 2 3 5 4 4 4 7 1 4 7 9 11 11 10 9 7 6 5 5 5 6 7 7 7 7 7 8 9 9 9 9 9 9 8 8 9 9
3 3 5 5 5 2 2 2 4 5 4 4 7 7 3 5 8 10 11 11 10 9 8 6 5 5 5 5 6 6 7 7 7 8 9 9 9 9 8 8 8 8 8 9
3 2 2 4 5 3 4 5 4 6 7 7 7 5 6 8 10 11 12 11 11 9 8 7 6 5 5 5 5 6 6 6 7 8 9 8 8 8 8 8 8 8 8 9
3 1 1 3 3 3 4 5 3 4 4 5 3 4 1 7 9 11 12 12 11 10 9 8 7 6 6 5 6 6 6 6 6 8 8 7 8 8 8 8 8 8 8 8
2 2 2 3 5 3 4 4 3 2 2 4 5 4 7 8 11 13 13 12 11 11 10 9 8 6 6 6 6 6 5 6 7 7 7 7 7 8 7 8 8 8 8 8
2 2 1 1 3 3 6 2 2 1 2 2 2 4 6 7 7 7 8 11 11 10 10 9 8 7 6 5 5 5 6 6 6 6 6 6 7 7 7 8 8 7 6 6
5 4 2 1 1 6 5 1 1 1 3 1 5 8 8 11 8 5 6 8 9 9 9 8 7 7 6 6 6 6 6 5 6 6 6 6 6 7 7 7 6 5 5 6
3 3 3 2 1 4 5 3 1 2 3 2 7 10 11 9 5 5 8 10 11 10 9 9 8 8 7 6 6 6 6 5 5 5 5 5 6 6 6 6 5 4 5 6
2 2 2 3 3 6 4 3 1 1 5 3 7 10 9 4 4 9 12 11 11 11 10 10 9 7 6 6 6 6 6 5 5 5 6 6 5 5 5 5 5 5 6 6
2 2 3 3 3 6 3 2 1 4 1 4 6 7 7 8 11 12 12 12 12 11 10 10 9 7 6 5 6 7 5 4 5 6 6 5 4 4 5 6 5 5 6 6
2 3 3 5 6 4 2 3 3 2 3 3 6 9 12 12 12 12 11 12 11 11 10 8 9 8 6 5 6 7 5 5 6 6 6 5 5 5 5 5 5 4 4 4
3 1 1 3 5 3 3 2 2 2 3 6 9 11 11 12 13 13 12 11 11 10 9 8 9 8 6 5 5 5 6 6 7 6 5 4 5 5 5 4 3 4 3 3
5 2 2 4 4 3 3 3 3 6 8 10 10 9 11 14 14 13 12 11 10 9 7 7 8 7 6 6 5 5 6 7 6 5 5 5 5 5 5 5 4 3 2 1
5 6 5 5 4 2 2 1 3 7 8 10 12 11 10 12 13 12 11 10 9 9 8 8 7 7 6 6 6 5 6 7 7 5 4 4 4 4 4 4 4 8 5 4
Wind_Direction
85 80 191 217 193 190 191 253 281 275 294 71 93 99 74 72 81 83 82 79 72 59 44 38 34 32 36 38 42 50 51 40 85 119 143 155 167 154 124 116 125 207 203 187
44 293 235 207 182 184 201 259 279 302 40 104 108 92 77 73 87 92 88 75 65 56 43 35 30 28 27 28 25 26 24 357 37 84 145 144 126 120 113 79 42 328 267 219
181 239 211 168 208 212 223 207 225 235 30 71 112 74 91 88 90 85 81 79 68 60 49 37 29 22 22 24 16 8 5 358 7 37 93 111 107 115 104 62 12 1 349 287
223 252 223 235 246 190 248 221 202 188 127 238 129 187 236 159 124 109 96 81 69 59 50 37 29 21 18 14 12 12 9 9 14 34 69 98 113 112 95 91 56 34 27 28
236 221 214 253 240 179 222 187 157 158 143 97 56 142 262 168 192 176 142 112 86 65 53 39 27 22 19 14 14 14 19 21 20 29 49 78 86 92 88 89 73 49 37 34
238 238 211 223 239 181 152 72 60 52 75 109 221 163 247 211 205 169 150 131 110 84 61 43 28 25 22 19 20 21 25 24 22 30 43 65 89 99 101 87 74 55 44 37
314 305 268 203 16 40 92 88 37 9 19 250 264 188 242 221 193 163 154 140 122 102 79 53 33 26 24 21 20 21 30 29 25 34 44 52 66 77 83 82 76 69 53 42
200 301 295 236 181 176 148 135 152 191 218 270 298 235 248 97 112 126 131 130 120 103 82 63 42 32 27 24 25 25 30 31 31 40 45 50 60 65 64 66 70 68 63 55
181 264 302 337 79 131 125 127 155 132 152 259 275 278 285 137 134 135 137 135 128 114 96 75 53 41 33 29 28 27 30 34 36 43 52 55 58 65 67 64 65 65 60 61
167 255 310 313 65 42 113 139 100 116 148 250 283 264 236 191 181 167 158 150 138 124 105 84 61 49 41 33 33 36 36 37 40 45 52 60 60 62 66 67 66 65 60 61
115 168 316 11 57 124 93 92 103 113 150 163 258 270 230 195 179 173 165 153 144 134 120 97 76 59 52 45 44 45 42 42 44 49 56 61 61 62 64 65 63 64 62 60
90 118 278 289 288 200 146 156 146 150 215 177 191 265 318 180 162 156 149 143 137 128 114 98 82 66 57 54 50 48 47 49 49 54 61 61 61 61 63 63 61 63 63 60
104 107 61 351 344 0 60 140 144 128 123 162 188 262 52 105 127 136 140 140 137 131 122 108 88 72 63 60 58 54 53 56 57 62 67 65 62 62 63 63 61 62 65 63
107 110 155 195 232 257 278 229 160 138 160 209 224 242 212 164 149 143 142 143 141 137 131 121 105 88 77 71 67 66 61 59 64 67 69 67 64 66 66 65 63 61 64 66
77 115 214 243 250 241 246 251 205 193 200 205 239 231 232 186 164 152 147 144 143 142 137 131 122 110 96 86 78 75 72 67 72 74 72 71 71 70 68 65 63 63 62 64
40 82 10 316 305 288 269 263 241 222 214 221 245 263 169 132 133 145 152 152 153 150 144 138 131 124 113 105 96 87 80 76 77 77 75 72 73 72 68 66 65 64 61 58
359 77 59 295 314 345 283 259 223 230 219 196 219 216 140 141 155 160 158 157 156 151 146 142 137 130 123 115 109 100 94 89 85 81 79 77 76 77 75 76 70 65 60 60
175 117 128 287 357 260 255 283 191 204 272 217 176 142 148 139 127 127 144 150 149 147 143 137 132 126 120 113 106 103 99 94 91 88 86 83 83 82 80 77 74 68 63 62
172 151 141 133 267 286 297 312 171 181 292 175 139 123 113 114 96 95 125 136 140 139 134 131 130 128 122 115 112 107 101 96 93 91 93 91 91 89 84 81 76 70 71 65
110 123 130 141 202 256 273 310 207 102 301 170 145 145 145 137 139 161 142 130 127 125 126 127 127 123 120 117 113 108 107 103 99 97 97 93 91 91 91 90 82 74 76 72
71 103 157 174 228 269 283 304 61 121 267 176 154 155 153 148 147 136 132 126 127 128 128 129 127 124 123 122 118 113 109 105 103 101 98 90 88 94 97 90 87 91 87 78
194 170 185 161 205 258 328 14 171 230 259 128 138 137 123 113 115 121 126 128 129 128 129 129 127 123 121 122 119 114 108 105 103 100 95 87 80 87 99 97 91 91 92 85
228 199 199 202 223 259 304 265 272 194 144 137 134 128 129 126 128 126 127 130 131 130 130 129 130 126 123 126 125 121 118 112 104 95 90 85 79 76 89 103 106 94 88 90
296 185 214 276 279 297 321 336 356 83 121 126 131 132 133 132 134 131 131 131 130 130 131 130 129 130 129 128 122 123 124 117 108 103 95 86 86 81 73 76 91 106 110 105
264 274 251 271 280 316 2 25 63 85 102 111 114 121 131 133 134 134 134 134 132 128 126 129 131 132 132 128 123 127 128 121 112 105 100 92 88 93 84 72 59 83 88 162
219 200 199 233 233 204 264 119 111 114 121 126 120 115 121 132 134 132 132 131 132 131 129 130 130 131 132 128 126 128 131 128 123 113 106 103 101 95 95 96 75 50 58 85